Content
SEND FEEDBACK

Daily
Averages
Monthly
Summary
United States of America

DAYTONA BEACH, FLORIDA


Home > North America > United States > Florida
Elevation: 29 feet     Latitude: 29 11N     Longitude: 081 03W

WEATHER
 
SELECT A DAY
Number of Records: 195,446;   Date Range: 1/1/95 - 7/23/14
 
SHARE

PRINT THIS DATA

[ ← Previous Day ]
WEATHER ALMANAC - JANUARY 3, 2013
[ Next Day → ]
[ °C ]   °F
Weather ElementAverageHighLow
Temperature60.1 °F69.1 °F (11:53 am) (1:00 am)
Dewpoint57.7 °F62.6 °F (8:06 am) (7:00 pm)
Humidity91.8 %100 % (2:51 am)78 % (11:53 am)
Barometer29.28 in30.21 in (11:53 pm) (7:00 pm)
Wind Speed6.4 mph13.8 mph (3:53 pm)
Wind Gust24.2 mph (4:53 pm)
Weather ElementAverage
Visibility5.4 mi
Wind DirectionS (177.5 °)

Weather ElementTotal
Precipitation0.10 in
Heating Degree Days30.5 (Base 65)
Averaged from 36 records on January 3, 2013
WEATHER CONDITIONS BREAKOUT
WIND DIRECTION BREAKOUT
WEATHER BY HOUR - JANUARY 3, 2013
[ °C ]   °F
Local TimeTemperatureDewpointHumidityBarometerVisibilityWind DirectionWind SpeedGust SpeedPrecipitationEventsConditions
1:00 AM0.0 °F0.0 °FNorth
1:16 AM62.6 °F60.8 °F94 %30.06 in6.0 miCalmFogPatches of Fog
1:29 AM62.6 °F60.8 °F94 %30.06 in2.0 miCalmFogPatches of Fog
1:53 AM62.1 °F61.0 °F96 %30.05 in0.5 miCalmFogFog
2:51 AM60.8 °F60.8 °F100 %30.06 in2.0 miNW (310°)3.5 mphOvercast
2:53 AM61.0 °F61.0 °F100 %30.06 in2.0 miNW (310°)3.5 mphOvercast
3:53 AM61.0 °F60.1 °F97 %30.06 in1.0 miCalmOvercast
4:25 AM60.8 °F60.8 °F100 %30.05 in0.5 miCalmFogFog
4:53 AM61.0 °F60.1 °F97 %30.06 in1.0 miCalmOvercast
5:53 AM62.1 °F61.0 °F96 %30.08 in1.0 miNorth (10°)5.8 mphOvercast
6:53 AM61.0 °F61.0 °F100 %30.09 in1.0 miNorth (360°)4.6 mphOvercast
7:38 AM60.8 °F60.8 °F100 %30.09 in0.5 miNorth (10°)4.6 mphFogFog
7:53 AM62.1 °F61.0 °F96 %30.10 in0.5 miNNW (340°)4.6 mphFogFog
8:06 AM62.6 °F62.6 °F100 %30.10 in1.0 miCalmOvercast
8:16 AM62.6 °F62.6 °F100 %30.11 in3.0 miNorth (350°)3.5 mphOvercast
8:53 AM63.0 °F62.1 °F97 %30.12 in7.0 miNorth (350°)4.6 mphOvercast
9:11 AM62.6 °F62.6 °F100 %30.12 in8.0 miNorth (360°)5.8 mphOvercast
9:53 AM64.9 °F62.1 °F90 %30.11 in9.0 miNNE (20°)5.8 mphMostly Cloudy
10:53 AM66.9 °F62.1 °F84 %30.13 in8.0 miNorth (360°)6.9 mphOvercast
11:12 AM66.2 °F62.6 °F88 %30.13 in10.0 miNorth (360°)9.2 mphOvercast
11:53 AM69.1 °F62.1 °F78 %30.12 in10.0 miNorth (10°)6.9 mphOvercast
12:53 PM66.9 °F61.0 °F81 %30.10 in10.0 miNorth (10°)6.9 mphOvercast
1:53 PM64.9 °F60.1 °F84 %30.09 in10.0 miNorth (350°)10.4 mph18.4 mphOvercast
2:53 PM63.0 °F59.0 °F87 %30.10 in10.0 miNorth (350°)12.7 mph18.4 mphOvercast
3:53 PM61.0 °F55.9 °F83 %30.12 in10.0 miNorth (350°)13.8 mphOvercast
4:53 PM60.1 °F55.0 °F83 %30.14 in10.0 miNorth (360°)13.8 mph24.2 mphOvercast
5:40 PM59.0 °F53.6 °F82 %30.14 in10.0 miNorth (350°)12.7 mph18.4 mphOvercast
5:53 PM60.1 °F53.1 °F78 %30.14 in10.0 miNorth (10°)12.7 mphOvercast
6:53 PM61.0 °F55.0 °F81 %30.17 in10.0 miNorth (350°)11.5 mphOvercast
7:53 PM59.0 °F55.0 °F87 %30.18 in4.0 miNNE (20°)8.1 mph18.4 mph0.00 inRainLight Rain
8:51 PM60.8 °F57.2 °F88 %30.18 in7.0 miNorth (10°)9.2 mph0.01 inOvercast
8:53 PM60.1 °F57.9 °F93 %30.18 in7.0 miNorth (10°)9.2 mph0.01 inOvercast
9:53 PM59.0 °F57.9 °F96 %30.20 in4.0 miNorth (350°)8.1 mph0.01 inRainLight Rain
10:37 PM59.0 °F57.2 °F94 %30.20 in2.5 miNorth (10°)8.1 mph0.03 inRainRain
10:53 PM59.0 °F57.9 °F96 %30.20 in5.0 miNorth (360°)8.1 mph0.04 inRainLight Rain
11:53 PM55.9 °F54.0 °F93 %30.21 in6.0 miNorth (350°)8.1 mph0.00 inLight Drizzle
Hourly data recorded from KDAB, located miles away from Daytona Beach, Florida







STORIES FROM OUR PARTNERS